TimeEDT,TemperatureF,Dew PointF,Humidity,Sea Level PressureIn,VisibilityMPH,Wind Direction,Wind SpeedMPH,Gust SpeedMPH,PrecipitationIn,Events,Conditions,WindDirDegrees,DateUTC
12:16 AM,59.0,53.6,82,30.10,10.0,NNE,4.6,-,N/A,,Mostly Cloudy,20,2012-10-09 04:16:00
12:55 AM,58.8,54.3,85,30.10,10.0,North,3.5,-,N/A,,Overcast,10,2012-10-09 04:55:00
1:00 AM,59.0,53.6,82,30.10,10.0,North,3.5,-,N/A,,Overcast,360,2012-10-09 05:00:00
1:55 AM,58.8,55.0,87,30.10,10.0,North,3.5,-,N/A,,Overcast,350,2012-10-09 05:55:00
2:55 AM,58.6,54.1,85,30.09,10.0,Variable,3.5,-,N/A,,Overcast,0,2012-10-09 06:55:00
3:55 AM,58.6,53.4,83,30.08,10.0,NNE,5.8,-,N/A,,Overcast,30,2012-10-09 07:55:00
4:29 AM,59.0,53.6,82,30.08,10.0,NE,4.6,-,N/A,,Overcast,40,2012-10-09 08:29:00
4:37 AM,59.0,53.6,82,30.08,10.0,NNE,3.5,-,N/A,,Overcast,30,2012-10-09 08:37:00
4:42 AM,59.0,53.6,82,30.08,10.0,Calm,Calm,-,N/A,,Overcast,0,2012-10-09 08:42:00
4:55 AM,58.3,53.2,83,30.09,10.0,NNE,5.8,-,N/A,,Overcast,30,2012-10-09 08:55:00
5:55 AM,57.9,53.1,84,30.09,10.0,NE,4.6,-,N/A,,Overcast,50,2012-10-09 09:55:00
6:55 AM,57.7,53.1,84,30.10,10.0,NNE,4.6,-,N/A,,Overcast,30,2012-10-09 10:55:00
7:49 AM,57.2,53.6,88,30.12,10.0,ENE,3.5,-,N/A,,Overcast,70,2012-10-09 11:49:00
7:51 AM,57.2,53.6,88,30.12,10.0,ENE,3.5,-,N/A,,Overcast,70,2012-10-09 11:51:00
7:55 AM,57.7,52.9,84,30.12,10.0,ENE,3.5,-,N/A,,Overcast,60,2012-10-09 11:55:00
8:48 AM,57.2,51.8,82,30.13,10.0,ENE,4.6,-,N/A,,Overcast,70,2012-10-09 12:48:00
8:55 AM,58.1,52.9,83,30.13,10.0,Variable,3.5,-,N/A,,Overcast,0,2012-10-09 12:55:00
9:44 AM,59.0,51.8,77,30.14,10.0,ENE,6.9,-,N/A,,Overcast,70,2012-10-09 13:44:00
9:50 AM,59.0,51.8,77,30.14,10.0,ENE,5.8,-,N/A,,Overcast,70,2012-10-09 13:50:00
9:51 AM,59.0,51.8,77,30.14,10.0,ENE,8.1,-,N/A,,Overcast,70,2012-10-09 13:51:00
9:55 AM,59.0,52.0,78,30.14,10.0,East,6.9,-,N/A,,Overcast,80,2012-10-09 13:55:00
10:55 AM,61.0,52.9,75,30.14,10.0,Variable,4.6,-,N/A,,Overcast,0,2012-10-09 14:55:00
11:00 AM,62.6,53.6,72,30.14,10.0,NE,4.6,-,N/A,,Overcast,50,2012-10-09 15:00:00
11:55 AM,64.0,54.7,72,30.14,10.0,Calm,Calm,-,N/A,,Overcast,0,2012-10-09 15:55:00
12:46 PM,68.0,55.4,64,30.12,10.0,Calm,Calm,-,N/A,,Scattered Clouds,0,2012-10-09 16:46:00
12:55 PM,68.4,56.1,65,30.11,10.0,Variable,3.5,-,N/A,,Scattered Clouds,0,2012-10-09 16:55:00
12:56 PM,68.0,55.4,64,30.11,10.0,Calm,Calm,-,N/A,,Mostly Cloudy,0,2012-10-09 16:56:00
1:02 PM,68.0,55.4,64,30.11,10.0,Variable,4.6,-,N/A,,Scattered Clouds,0,2012-10-09 17:02:00
1:17 PM,68.0,55.4,64,30.11,10.0,Variable,3.5,-,N/A,,Mostly Cloudy,0,2012-10-09 17:17:00
1:49 PM,69.8,57.2,64,30.09,10.0,WNW,4.6,-,N/A,,Mostly Cloudy,300,2012-10-09 17:49:00
1:55 PM,70.5,56.5,61,30.09,10.0,Calm,Calm,-,N/A,,Mostly Cloudy,0,2012-10-09 17:55:00
2:55 PM,71.1,56.5,60,30.06,10.0,Calm,Calm,-,N/A,,Partly Cloudy,0,2012-10-09 18:55:00
3:55 PM,70.9,55.8,59,30.06,10.0,Calm,Calm,-,N/A,,Partly Cloudy,0,2012-10-09 19:55:00
4:55 PM,73.6,56.7,55,30.04,10.0,West,3.5,-,N/A,,Clear,260,2012-10-09 20:55:00
5:55 PM,73.4,56.1,55,30.04,10.0,West,3.5,-,N/A,,Clear,260,2012-10-09 21:55:00
6:55 PM,68.7,59.5,72,30.04,10.0,Calm,Calm,-,N/A,,Clear,0,2012-10-09 22:55:00
7:55 PM,62.1,58.6,89,30.04,10.0,Calm,Calm,-,N/A,,Clear,0,2012-10-09 23:55:00
8:55 PM,59.2,57.4,94,30.06,10.0,SE,3.5,-,N/A,,Clear,130,2012-10-10 00:55:00
9:53 PM,57.2,55.4,94,30.07,6.0,Calm,Calm,-,N/A,,Clear,0,2012-10-10 01:53:00
9:55 PM,56.7,55.8,97,30.07,6.0,Calm,Calm,-,N/A,,Clear,0,2012-10-10 01:55:00
9:59 PM,57.2,55.4,94,30.08,7.0,Calm,Calm,-,N/A,,Clear,0,2012-10-10 01:59:00
10:21 PM,57.2,57.2,100,30.08,8.0,Calm,Calm,-,N/A,,Clear,0,2012-10-10 02:21:00
10:55 PM,56.1,55.8,99,30.09,5.0,Calm,Calm,-,N/A,,Clear,0,2012-10-10 02:55:00
11:02 PM,55.4,55.4,100,30.09,3.0,SE,4.6,-,N/A,,Clear,130,2012-10-10 03:02:00
11:11 PM,53.6,53.6,100,30.09,3.0,SE,4.6,-,N/A,,Clear,130,2012-10-10 03:11:00
11:45 PM,53.6,53.6,100,30.09,5.0,SE,3.5,-,N/A,,Clear,130,2012-10-10 03:45:00
11:52 PM,53.6,53.6,100,30.09,5.0,SE,3.5,-,N/A,,Clear,130,2012-10-10 03:52:00
11:55 PM,53.8,53.4,99,30.09,6.0,SE,3.5,-,N/A,,Clear,130,2012-10-10 03:55:00